{"data":{"norad_id":66623,"epoch":"2026-05-25T04:51:37.416096Z","epoch_age_seconds":60707,"freshness":"FRESH","line1":"1 66623U 25271G   26145.20251639  .00036346  00000+0  10812-2 0  9991","line2":"2 66623  53.1585 142.9468 0001105 102.1544 257.9582 15.34414682 29300","mean_motion":15.34414682,"eccentricity":0.0001105,"inclination_deg":53.1585,"raan_deg":142.9468,"arg_perigee_deg":102.1544,"mean_anomaly_deg":257.9582,"bstar":0.0010812,"rev_number":2930,"period_min":93.846860101929,"perigee_km":461.90369453239,"apogee_km":463.41551058155,"semimajor_km":6840.796602557,"source":"CELESTRAK","updated_at":"2026-05-25T13:38:21.295167Z"}}